AVUM R/B, 53109

Orbit data source: Space-Track

AVUM R/B, 53109 is space debris originally from a launch on Wed, 13 Jul 2022 UTC via a Vega C launch vehicle from the French Guiana (FRGUI). Debris objects in space refer to the collection of defunct objects orbiting the Earth. Examples of debris include non-operational satellites, rocket bodies, and fragments generated from explosions, collisions, or faulty payload assembly.

Loading next visibility...
Identifier
53109, 2022-080E
Orbit
Active
Last TLE update
2 days ago
Origin
Manufacturer
Avio
Mission
Operational Amateur Technology
Bus & Motor
AVUM, Unknown motor
Mass
Wet unknown, 660 kg dry
Launch date (UTC)
2022-07-13 (3 years ago)
Launch vehicle
Vega C
Launch site
French Guiana (FRGUI)
Object type
Payload
Rocket body
Debris
Shape & HBR
Box, 0.1 m
Radar Cross Section
0.015 m², Large (>1 m²)

Expand to show TLE details & history

TLE from 2 days ago
0 AVUM R/B
1 53109U 22080E   25189.07222494 -.00000003  00000-0  00000-0 0  9999
2 53109  70.1413  57.9092 0008544   3.5665 356.5055  6.42583714 69952
Epoch: 2025-07-08T01:44Z
TLE epoch observation values (Epoch: 2025-07-08T01:44:00.234Z)
Latitude
0.00002°
Longitude
105.63577°
Altitude
5,834.069 km
Speed
5.716 km/s
True Right ascension
03h 51m 38s
True Declination
0° 00' 00"
Sunlit
Object was in daylight at epoch
Visualization orbit readout
Latitude
-29.66545°
Longitude
-63.10422°
Altitude
5,862.148 km
Speed
5.705 km/s
Apparent Right ascension
16h 52m 49s
Apparent Declination
-33° 11' 30"
Sunlit
Object is in daylight
Visualization observer readout
Local Sidereal Time
05:27:59
Azimuth
49.11° ENE
Elevation
-80.257°
Doppler factor
1
Orbital elements
Apogee altitude
5,852.376 km
Perigee altitude
5,831.494 km
Semi-major axis
12,220.072 km
Eccentricity
0.00085
Inclination
70.1413°
RAAN
57.9092°
Arg. of periapsis
3.5665°
True anomaly
Unknown
Mean anomaly
356.5055°
Eccentric anomaly
Unknown
Mean motion
1.60669 °/min
Orbital period
224.06 mins
BSTAR
0
Loading maneuver chart data...
Loading SW <> Apogee altitude chart data...
Loading historical data...
Loading historical data...
Loading historical data...
Loading historical data...
Loading historical data...
Loading historical data...
Loading historical data...

AVUM R/B Visibility forecast

Observer location: undefined°, undefined°

Span
Click to sort rows by Start time (UTC) header in descending order
Start Az.
Max El. time (UTC)
Max El. Az.
Max El.
End time (UTC)
End Az.
61 mins2025-07-09 18:57:52.920Z248.893° W2025-07-09 19:27:52.920Z323.479° NNW35.484°2025-07-09 19:58:52.920Z38.815° NE
60 mins2025-07-09 23:16:52.920Z322.772° NNW2025-07-09 23:46:52.920Z37.378° NE35.502°2025-07-10 00:16:52.920Z111.296° ESE
59 mins2025-07-10 03:15:52.920Z333.238° NNW2025-07-10 03:44:52.920Z263.042° W41.177°2025-07-10 04:14:52.920Z189.034° SSW
47 mins2025-07-10 13:30:52.920Z135.432° SSE2025-07-10 13:54:52.920Z81.101° E28.002°2025-07-10 14:17:52.920Z31.029° NE
|